Other Public Products
Issued by NWS Grand Forks, ND

Home | Current Version | Previous Version | Graphics & Text | Print | Product List | Glossary On
Versions: 1 2 3 4 5 6 7 8 9 10 11 12 13 14 15 16 17 18 19 20 21 22 23 24 25 26 27 28 29 30 31 32 33 34 35 36 37 38 39 40 41 42 43 44 45 46 47 48 49 50
000
FPUS83 KFGF 231610
OPUFGF
PRAIRIE TO PINES WEATHER ROUNDUP
NATIONAL WEATHER SERVICE EASTERN NORTH DAKOTA/GRAND FORKS ND
1100 AM CDT SAT MAY 23 2015

 **SATELLITE DATA USED TO AUGMENT SKY COVER AT AUTOMATED STATIONS**
 *****  WEATHER ACROSS EASTERN NORTH DAKOTA  *****

CITY           SKY/WX    TMP DP  RH WIND       PRES   REMARKS
GRAND FORKS    MOSUNNY   69  46  43 VRB3      30.13F
GRAND FORKS AF SUNNY     71  46  41 VRB2      30.13F
GRAND CITY NWS   N/A     66 N/A N/A SW3         N/A
BUXTON         NOT AVBL
DEVILS LAKE    SUNNY     66  46  48 SW9       30.13F
FARGO          SUNNY     68  45  43 SW13      30.19S
WAHPETON ARPT  MOSUNNY   64  39  39 S14       30.21S
$$

 *****  WEATHER ACROSS CENTRAL AND WESTERN NORTH DAKOTA  *****

CITY           SKY/WX    TMP DP  RH WIND       PRES   REMARKS
JAMESTOWN      SUNNY     65  46  50 S10       30.17S
BISMARCK       SUNNY     60  45  57 SE10      30.16F
MINOT          MOSUNNY   68  38  33 CALM      30.13S
MINOT AFB      SUNNY     74  40  29 SW5       30.12S
GARRISON         N/A     63  43  48 S7        30.14F
WILLISTON      SUNNY     66  41  40 VRB6      30.12S
DICKINSON      MOSUNNY   58  43  57 E13G21    30.09F
HETTINGER      CLOUDY    52  43  71 SE20G26   30.11S
$$

 *****  OTHER OBSERVATIONS NORTHEAST NORTH DAKOTA  *****

CITY           SKY/WX    TMP DP  RH WIND       PRES   REMARKS
WALHALLA         N/A     75  36  23 S5        30.11S
LANGDON        FAIR      77  37  24 CALM      30.13F
CAVALIER       FAIR      75  32  20 S6        30.11F
GRAFTON        FAIR      68  46  45 SE8       30.13F
CANDO          FAIR      70  45  40 S5        30.14S
FORT TOTTEN      N/A     71  46  39 W3        29.95
ROLLA            N/A     73  32  21 CALM      30.14S
RUGBY          NOT AVBL
 ***** THE ABOVE OBSERVATIONS ARE NON NWS ARE NOT QUALITY
        CONTROLLED AND MAY MIS-REPORT RAIN FOR SNOW...
$$

 *****  OTHER OBSERVATIONS SOUTHEAST NORTH DAKOTA *****

CITY           SKY/WX    TMP DP  RH WIND       PRES   REMARKS
COOPERSTOWN    NOT AVBL
VALLEY CITY    FAIR      66  45  45 SW15G21   30.18S
OAKES            N/A     63  45  51 SE14      30.18F
GWINNER        NOT AVBL
SHEYENNE NWR     N/A     69  44  39 S10       29.95S
BUFFALO        NOT AVBL
WYNDMERE         N/A     66  43  42 S10         N/A
 ***** THE ABOVE OBSERVATIONS ARE NON NWS ARE NOT QUALITY
       CONTROLLED AND MAY MIS-REPORT RAIN FOR SNOW...
$$

  *****  WEATHER ACROSS NORTHERN MINNESOTA  *****

CITY           SKY/WX    TMP DP  RH WIND       PRES   REMARKS
FLAG ISLAND    SUNNY     61  43  51 SE7       30.12F
WARROAD        SUNNY     73  43  33 SW9       30.14F
ROSEAU         SUNNY     73  37  27 W8        30.14F
HALLOCK        SUNNY     72  43  35 S7        30.12S
THF RVR FALLS  SUNNY     66  46  48 S10       30.16F
HALSTAD        NOT AVBL
FOSSTON        SUNNY     66  45  45 S15G21    30.18F
BAUDETTE       SUNNY     74  37  26 SW9       30.14F
WASKISH        SUNNY     70  46  43 CALM      30.17S
CROOKSTON      SUNNY     66  46  48 SW9       30.16S
$$
  *****  WEATHER ACROSS CENTRAL AND WEST MINNESOTA  *****

CITY           SKY/WX    TMP DP  RH WIND       PRES   REMARKS
BEMIDJI        SUNNY     69  45  42 SW9       30.18S
PARK RAPIDS    SUNNY     70  42  36 SW10      30.20F
WADENA         SUNNY     66  43  42 W8        30.22S
DETROIT LAKES  SUNNY     64  43  45 SW7       30.22S
MOORHEAD       SUNNY     66  45  45 SW10G16   30.20S
FERGUS FALLS   SUNNY     66  43  42 S6        30.22S
ELBOW LAKE     FAIR      65  44  45 SE6       30.22S
MORRIS MN      CLOUDY    63  45  51 E8        30.22S
STAPLES        SUNNY     68  39  34 SW6       30.23R
WHEATON        MOSUNNY   63  43  48 SE14      30.23S
$$
  *****  WEATHER ELSEWHERE ACROSS MINNESOTA  *****

CITY           SKY/WX    TMP DP  RH WIND       PRES   REMARKS
DULUTH         SUNNY     74  38  27 SW9       30.20F
INTRNTL FALLS  SUNNY     73  39  29 W8        30.15F
ELY            SUNNY     72  34  25 SW10      30.18S
CLOQUET        SUNNY     72  32  23 SW5       30.20F
BRAINERD       SUNNY     68  44  42 W10       30.22F
HIBBING        SUNNY     73  33  23 VRB7      30.19F
ALEXANDRIA     MOSUNNY   64  41  42 SW9       30.25S
SAINT CLOUD    PTSUNNY   65  45  48 SW10      30.25R
MINNEAPOLIS    CLOUDY    66  44  45 N10       30.24F
$$

  *****  WEATHER ACROSS SOUTH DAKOTA  *****

CITY           SKY/WX    TMP DP  RH WIND       PRES   REMARKS
SIOUX FALLS    CLOUDY    61  52  72 SE12      30.18F
BROOKINGS      CLOUDY    61  43  51 SE13      30.20F
WATERTOWN      PTSUNNY   62  45  53 S16G22    30.19S
HURON          CLOUDY    55  51  86 SE10      30.17S
SISSETON         N/A     64  43  46 S10       30.20S
ABERDEEN       CLOUDY    62  44  51 S13       30.18R
MITCHELL       CLOUDY    62  50  64 SE14      30.16F
PIERRE         CLOUDY    54  49  83 E14       30.11F
MOBRIDGE       CLOUDY    60  48  64 SE13      30.12S
RAPID CITY     CLOUDY    50  46  86 SE10      30.07S
$$

  *****  SOME WEATHER IN NEARBY STATES *****

CITY           SKY/WX    TMP DP  RH WIND       PRES   REMARKS
GLASGOW MT     PTSUNNY   63  38  39 E21       30.07S
GREAT FALLS MT LGT RAIN  50  49  96 NW5       30.08S
CHEYENNE WY    CLOUDY    50  43  77 S13       30.03S
SCOTTSBLUFF NE CLOUDY    52  50  93 E9        30.03S
OMAHA NE       CLOUDY    61  54  77 S15       30.20S
DES MOINES IA  PTSUNNY   69  50  50 S13       30.25S
DAVENPORT IA   SUNNY     74  50  42 S12G18    30.29F
CHICAGO IL     MOSUNNY   72  41  32 SE9       30.31F
EAU CLAIRE WI  PTSUNNY   67  43  41 SW7       30.24F
LA CROSSE WI   PTSUNNY   67  47  48 S5        30.26F
$$

  *****  SOME NATIONAL WEATHER *****

CITY           SKY/WX    TMP DP  RH WIND       PRES   REMARKS
LA GUARDIA NY  MOSUNNY   58  25  28 NW14G20   30.42S
RALEIGH NC     MOSUNNY   72  47  40 VRB6      30.45F
ATLANTA GA     MOSUNNY   76  53  44 SE8G18    30.38F
NEW ORLEANS LA PTSUNNY   84  66  54 E13       30.21S
OKLAHOMA CITY  FOG       65  64  97 SE17      30.05F VSB 1/2
ALBUQUERQUE NM MOSUNNY   61  30  31 W7        30.05R
SALT LAKE CITY CLOUDY    53  45  74 SE3       29.93S
LOS ANGELES CA PTSUNNY   61  52  72 E5        30.09S
BOISE ID       MOSUNNY   63  51  65 W10       29.90F
SEATTLE WA     CLOUDY    54  50  86 S6        30.17R
$$

*** WEATHER ACROSS MANITOBA...SASKATCHEWAN AND ONTARIO ***
                ***ONTARIO***

CITY           SKY/WX    TMP DP  RH WIND       PRES   REMARKS
GERALDTON      MOSUNNY   70  39  32 W12G20    30.00S
THUNDER BAY    PTSUNNY   75  39  27 W15G23    30.08S
SIOUX LOOKOUT  PTSUNNY   73  37  27 NW17G24   30.05S
TORONTO        SUNNY     61  27  27 SW10G17   30.38F
BIG TROUT LK   SUNNY     41  32  70 N9        30.08S
PICKLE LAKE    CLOUDY    63  39  42 VRB5      30.02R
DRYDEN         SUNNY     73  39  29 W18G25    30.08F
KENORA         PTSUNNY   72  32  23 SW12      30.12S
$$
                *** MANITOBA***

CITY           SKY/WX    TMP DP  RH WIND       PRES   REMARKS
BRANDON        MOSUNNY   75  39  27 NW12      30.10F
DAUPHIN        SUNNY     77  39  25 W15       30.05F
ISLAND LAKE    MOSUNNY   48  36  61 VRB10     30.13S
PILOT MOUND      N/A     72  37  28 E2          N/A
THE PAS        MOSUNNY   57  41  54 N8        30.11R
THOMPSON       PTSUNNY   46  27  46 E8        30.21F
WINNIPEG       MOSUNNY   75  45  33 SW7       30.09F
LYNN LAKE      SUNNY     48  30  49 NE8       30.24S
CHURCHILL      PTSUNNY   36  23  60 NW13      30.19F
$$
                ***SASKATCHEWAN***

CITY           SKY/WX    TMP DP  RH WIND       PRES   REMARKS
ESTEVAN        MOSUNNY   70  34  26 VRB2      30.13S
KINDERSLEY     MOSUNNY   72  34  25 CALM      30.12S
LLOYDMINSTER   PTSUNNY   73  28  19 N6        30.10S
PRINCE ALBERT  MOSUNNY   75  41  29 E5        30.07R
REGINA         MOSUNNY   72  37  28 SW10      30.13S
YORKTON        SUNNY     75  39  27 W9        30.09S


USA.gov is the U.S. government's official web portal to all federal, state and local government web resources and services.